Pagosa Springs, CO

8:34 PM MDT on March 24, 2017 (GMT -0600)
Pagosa Springs

Weather History for KPSO - November, 2012

Change the Weather History Date:

Thursday, November 8, 2012

  Actual Average (KE33) Record (KE33)
Temperature  
Mean Temperature 42 °F -  
Max Temperature 58 °F 44 °F 66 °F (2006)
Min Temperature 26 °F 28 °F 23 °F (2000)
Degree Days  
Heating Degree Days 23    
Moisture  
Dew Point 15 °F    
Average Humidity 37    
Maximum Humidity 62    
Minimum Humidity 16    
Precipitation  
Precipitation 0.00 in - - ()
Sea Level Pressure  
Sea Level Pressure 30.12 in    
Wind  
Wind Speed 2 mph (WSW)    
Max Wind Speed 14 mph    
Max Gust Speed 21 mph    
Visibility 10 miles    
Events      
Averages and records for this station are not official NWS values.
T = Trace of Precipitation, MM = Missing Value Source: NWS Daily Summary

Daily Weather History Graph

Daily Weather History Graph

Search for Another Location

Airport or City:

Trip Planner

Search our weather history database for the weather conditions in past years. The results will help you decide how hot, cold, wet, or windy it might be!

Date:

Astronomy

Nov. 08, 2012 Rise Set
Actual Time 6:40 AM MST 5:02 PM MST
Civil Twilight 6:13 AM MST 5:30 PM MST
Nautical Twilight 5:42 AM MST 6:01 PM MST
Astronomical Twilight 5:11 AM MST 6:32 PM MST
Moon 12:46 AM MST (11/8) 1:39 PM MST (11/8)
Length of Visible Light 11h 17m
Length of Day
10h 22m
Waning Crescent, 32% of the Moon is Illuminated
Nov 8
Waning Crescent
Nov 13
New
Nov 20
First Quarter
Nov 28
Full
Dec 6
Last Quarter

Hourly Weather History & Observations

Time (MST) Temp. Windchill Dew Point Humidity Pressure Visibility Wind Dir Wind Speed Gust Speed Precip Events Conditions
12:15 AM 29.3 °F - 14.0 °F 53% 30.21 in 10.0 mi Calm Calm - N/A   Clear
12:35 AM 32.4 °F - 14.9 °F 49% 30.21 in 10.0 mi Calm Calm - N/A   Clear
12:55 AM 31.8 °F - 15.6 °F 51% 30.21 in 10.0 mi Calm Calm - N/A   Clear
1:15 AM 28.6 °F - 14.0 °F 54% 30.21 in 10.0 mi Calm Calm - N/A   Clear
1:35 AM 30.6 °F - 14.7 °F 52% 30.21 in 10.0 mi Calm Calm - N/A   Clear
1:55 AM 28.8 °F - 14.7 °F 56% 30.21 in 10.0 mi Calm Calm - N/A   Clear
2:15 AM 31.6 °F - 15.8 °F 52% 30.21 in 10.0 mi Calm Calm - N/A   Clear
2:35 AM 29.1 °F - 14.9 °F 55% 30.20 in 10.0 mi Calm Calm - N/A   Clear
2:55 AM 30.4 °F - 14.7 °F 52% 30.19 in 10.0 mi Calm Calm - N/A   Clear
3:15 AM 28.8 °F - 14.9 °F 56% 30.19 in 10.0 mi Calm Calm - N/A   Clear
3:35 AM 31.3 °F - 15.3 °F 52% 30.19 in 10.0 mi Calm Calm - N/A   Clear
3:55 AM 29.5 °F - 16.0 °F 57% 30.18 in 10.0 mi Calm Calm - N/A   Clear
4:15 AM 27.5 °F - 13.8 °F 56% 30.19 in 10.0 mi Calm Calm - N/A   Clear
4:35 AM 27.1 °F - 15.3 °F 61% 30.19 in 10.0 mi Calm Calm - N/A   Clear
5:15 AM 27.7 °F - 15.1 °F 59% 30.19 in 10.0 mi Calm Calm - N/A   Clear
5:35 AM 27.9 °F - 15.3 °F 59% 30.19 in 10.0 mi Calm Calm - N/A   Clear
5:55 AM 27.9 °F - 15.8 °F 61% 30.19 in 10.0 mi Calm Calm - N/A   Clear
6:15 AM 26.8 °F - 15.4 °F 62% 30.19 in 10.0 mi Calm Calm - N/A   Clear
6:35 AM 27.9 °F - 14.9 °F 58% 30.18 in 10.0 mi Calm Calm - N/A   Clear
6:55 AM 28.8 °F - 15.6 °F 58% 30.18 in 10.0 mi Calm Calm - N/A   Clear
7:15 AM 30.2 °F 26.7 °F 15.8 °F 55% 30.19 in 10.0 mi SSW 3.5 mph - N/A   Clear
7:35 AM 27.7 °F - 15.4 °F 60% 30.19 in 10.0 mi Calm Calm - N/A   Clear
7:55 AM 36.5 °F - 16.0 °F 43% 30.19 in 10.0 mi Calm Calm - N/A   Clear
8:15 AM 40.3 °F 38.2 °F 15.6 °F 37% 30.18 in 10.0 mi NNE 3.5 mph - N/A   Clear
8:35 AM 43.0 °F - 15.1 °F 32% 30.17 in 10.0 mi Calm Calm - N/A   Clear
8:55 AM 44.8 °F - 14.7 °F 30% 30.17 in 10.0 mi Calm Calm - N/A   Clear
9:15 AM 46.8 °F - 15.6 °F 29% 30.17 in 10.0 mi SSW 3.5 mph - N/A   Clear
9:35 AM 49.3 °F - 15.8 °F 26% 30.17 in 10.0 mi Calm Calm - N/A   Clear
9:55 AM 51.8 °F - 14.7 °F 23% 30.17 in 10.0 mi Calm Calm - N/A   Clear
10:15 AM 52.9 °F - 14.4 °F 22% 30.16 in 10.0 mi SSW 4.6 mph - N/A   Clear
10:35 AM 55.0 °F - 14.4 °F 20% 30.16 in 10.0 mi SSW 5.8 mph - N/A   Clear
10:55 AM 56.8 °F - 14.2 °F 19% 30.15 in 10.0 mi South 4.6 mph - N/A   Clear
11:15 AM 55.8 °F - 14.9 °F 20% 30.15 in 10.0 mi SE 3.5 mph - N/A   Clear
11:55 AM 55.9 °F - 17.8 °F 22% 30.13 in 10.0 mi SSW 13.8 mph 17.3 mph N/A   Scattered Clouds
12:15 PM 55.6 °F - 21.7 °F 27% 30.13 in 10.0 mi West 13.8 mph 20.7 mph N/A   Scattered Clouds
12:35 PM 55.8 °F - 22.6 °F 28% 30.12 in 10.0 mi WNW 10.4 mph 16.1 mph N/A   Scattered Clouds
12:55 PM 56.3 °F - 22.6 °F 27% 30.11 in 10.0 mi WNW 10.4 mph 16.1 mph N/A   Clear
1:15 PM 55.0 °F - 22.5 °F 28% 30.10 in 10.0 mi NW 8.1 mph - N/A   Clear
1:35 PM 55.0 °F - 24.1 °F 30% 30.09 in 10.0 mi NW 11.5 mph - N/A   Scattered Clouds
1:55 PM 53.8 °F - 23.5 °F 31% 30.09 in 10.0 mi NW 4.6 mph - N/A   Scattered Clouds
2:15 PM 56.1 °F - 23.4 °F 28% 30.07 in 10.0 mi WNW 6.9 mph - N/A   Scattered Clouds
2:35 PM 56.8 °F - 19.4 °F 23% 30.07 in 10.0 mi West 3.5 mph - N/A   Clear
2:55 PM 58.1 °F - 17.2 °F 20% 30.07 in 10.0 mi West 12.7 mph - N/A   Clear
3:15 PM 58.1 °F - 16.7 °F 20% 30.07 in 10.0 mi SW 9.2 mph - N/A   Clear
3:35 PM 57.7 °F - 15.6 °F 19% 30.07 in 10.0 mi West 6.9 mph - N/A   Clear
3:55 PM 58.1 °F - 12.7 °F 17% 30.06 in 10.0 mi SW 5.8 mph - N/A   Clear
4:15 PM 57.7 °F - 11.3 °F 16% 30.05 in 10.0 mi WSW 8.1 mph - N/A   Clear
4:35 PM 56.7 °F - 11.5 °F 17% 30.05 in 10.0 mi WSW 5.8 mph - N/A   Clear
4:55 PM 55.2 °F - 11.8 °F 18% 30.05 in 10.0 mi WSW 3.5 mph - N/A   Clear
5:15 PM 51.6 °F - 11.8 °F 20% 30.05 in 10.0 mi Calm Calm - N/A   Clear
5:35 PM 45.0 °F - 12.0 °F 26% 30.06 in 10.0 mi Calm Calm - N/A   Clear
5:55 PM 41.9 °F - 11.7 °F 29% 30.05 in 10.0 mi Calm Calm - N/A   Clear
6:15 PM 41.7 °F - 11.1 °F 29% 30.05 in 10.0 mi Calm Calm - N/A   Clear
6:35 PM 41.2 °F - 10.8 °F 29% 30.05 in 10.0 mi Calm Calm - N/A   Clear
6:55 PM 41.0 °F - 9.9 °F 28% 30.05 in 10.0 mi Calm Calm - N/A   Clear
7:15 PM 38.8 °F - 11.7 °F 33% 30.05 in 10.0 mi Calm Calm - N/A   Clear
7:35 PM 35.6 °F - 9.5 °F 34% 30.05 in 10.0 mi Calm Calm - N/A   Clear
7:55 PM 37.4 °F - 9.7 °F 32% 30.05 in 10.0 mi Calm Calm - N/A   Clear
8:15 PM 35.8 °F - 9.7 °F 34% 30.04 in 10.0 mi Calm Calm - N/A   Clear
8:35 PM 35.2 °F - 10.0 °F 35% 30.05 in 10.0 mi Calm Calm - N/A   Clear
8:55 PM 34.0 °F - 10.4 °F 38% 30.05 in 10.0 mi Calm Calm - N/A   Clear
9:15 PM 34.3 °F - 10.4 °F 37% 30.05 in 10.0 mi Calm Calm - N/A   Clear
9:35 PM 35.1 °F - 10.8 °F 37% 30.05 in 10.0 mi Calm Calm - N/A   Clear
9:55 PM 35.2 °F - 10.9 °F 37% 30.05 in 10.0 mi Calm Calm - N/A   Clear
10:15 PM 33.8 °F - 11.5 °F 40% 30.04 in 10.0 mi Calm Calm - N/A   Clear
10:35 PM 37.2 °F - 11.7 °F 35% 30.05 in 10.0 mi Calm Calm - N/A   Scattered Clouds
10:55 PM 35.1 °F - 12.2 °F 39% 30.05 in 10.0 mi Calm Calm - N/A   Scattered Clouds
11:15 PM 37.4 °F - 12.4 °F 36% 30.05 in 10.0 mi Calm Calm - N/A   Mostly Cloudy
11:35 PM 36.9 °F - 13.5 °F 38% 30.05 in 10.0 mi Calm Calm - N/A   Scattered Clouds
11:55 PM 38.7 °F - 12.7 °F 35% 30.05 in 10.0 mi Calm Calm - N/A   Scattered Clouds